Location: Nelson
(41.2830°S, 173.2830°E)
Time: 11:32:57
(UTC+13:00)

Radarsat Rocket - Pass Details

Date: 03 October 2021
Orbit: 933 x 1492 km, 100.6° (Epoch: 27 October)

Event Time Altitude Azimuth Distance (km) Brightness Sun altitude
Rises 22:30:11 0° 180° (S) 4,203 7.8 -31.0°
Reaches altitude 10° 22:35:57 10° 215° (SW) 3,064 7.4 -31.8°
Maximum altitude 22:37:02 10° 224° (SW) 3,000 7.4 -32.0°
Drops below altitude 10° 22:38:07 10° 234° (SW) 3,000 7.4 -32.1°
Sets 22:43:24 0° 271° (W) 3,805 7.7 -32.8°
